GW1057 Weather Reports


time (UTC)temp
F
wind
direction
speed
knots
gust
knots
rain 1hr
in
rain 24hr
in
rain mn
in
humidity
%
barometer
mb
20260506044547 52 286 0.9 4.3 0.00 0.04 0.04 56 1011.1
20260506043044 53 290 0.9 4.3 0.00 0.04 0.04 55 1010.8
20260506041543 53 282 1.7 5.2 0.00 0.04 0.04 53 1010.6
20260506040040 54 301 0.9 4.3 0.00 0.04 0.04 52 1010.3
20260506034541 54 290 0.0 3.5 0.00 0.04 0.04 51 1010.1
20260506033038 55 200 0.9 5.2 0.00 0.04 0.04 50 1009.7
20260506031539 55 258 0.9 7.0 0.00 0.04 0.04 49 1009.3
20260506030056 56 196 0.9 7.8 0.00 0.04 0.04 48 1009.1
20260506024550 56 270 1.7 9.6 0.00 0.04 0.04 46 1008.9
20260506023038 57 294 2.6 7.8 0.00 0.04 0.04 46 1008.7
20260506021537 58 227 0.9 5.2 0.00 0.04 0.04 44 1008.6
20260506020036 58 277 1.7 6.1 0.00 0.04 0.04 44 1008.3
20260506014548 59 273 3.5 10.4 0.00 0.04 0.04 42 1008.0
20260506013036 60 254 1.7 6.1 0.00 0.04 0.04 40 1008.0
20260506011538 60 249 3.5 8.7 0.00 0.04 0.04 39 1007.9
20260506010041 60 175 3.5 9.6 0.00 0.04 0.04 38 1007.9
20260506004546 61 202 4.3 13.0 0.00 0.04 0.04 35 1007.8
20260506003039 63 205 2.6 7.8 0.00 0.04 0.04 35 1007.5
20260506001534 63 215 1.7 13.9 0.01 0.04 0.04 36 1007.3
20260506000033 62 181 6.1 18.2 0.01 0.04 0.04 35 1007.1
20260505234533 62 215 4.3 15.6 0.01 0.04 0.04 40 1007.1
20260505233031 62 201 5.2 20.9 0.01 0.04 0.04 41 1007.2
20260505231530 63 200 6.1 14.8 0.00 0.03 0.03 40 1007.2
20260505230039 62 196 6.1 13.9 0.00 0.03 0.03 44 1007.3
20260505224533 62 202 3.5 10.4 0.00 0.03 0.03 45 1007.5
20260505223025 62 219 5.2 12.2 0.00 0.03 0.03 46 1007.5
20260505221524 63 198 2.6 9.6 0.00 0.03 0.03 49 1007.6
20260505220022 62 209 3.5 11.3 0.00 0.03 0.03 52 1007.8
20260505214523 63 246 4.3 9.6 0.00 0.03 0.03 54 1008.0
20260505213022 60 203 3.5 10.4 0.00 0.03 0.03 61 1008.3
20260505211523 58 200 3.5 8.7 0.00 0.03 0.03 64 1008.5
20260505210022 58 239 2.6 14.8 0.00 0.03 0.03 63 1008.5
20260505204522 62 192 1.7 7.8 0.00 0.03 0.03 52 1008.3
20260505203026 63 219 1.7 11.3 0.00 0.03 0.03 50 1008.6
20260505201519 64 222 1.7 15.6 0.00 0.03 0.03 49 1008.7
20260505200017 64 341 1.7 9.6 0.00 0.03 0.03 52 1008.9
20260505194516 63 200 1.7 10.4 0.00 0.03 0.03 52 1008.9
20260505193011 62 297 1.7 12.2 0.00 0.03 0.03 57 1009.0
20260505191510 61 258 2.6 7.0 0.00 0.03 0.03 58 1009.1
20260505190007 59 237 1.7 6.1 0.00 0.03 0.03 66 1009.3
20260505184510 57 264 0.9 12.2 0.00 0.03 0.03 65 1009.8
20260505183007 58 342 3.5 10.4 0.00 0.03 0.03 64 1009.6
20260505181504 58 273 2.6 7.8 0.00 0.03 0.03 69 1009.7
20260505180107 56 280 1.7 8.7 0.00 0.03 0.03 71 1009.8
20260505180000 56 207 0.9 8.7 0.00 0.03 0.03 71 1009.8
20260505174559 55 27 0.9 6.1 0.00 0.03 0.03 71 1009.8
20260505173100 55 306 0.9 5.2 0.00 0.03 0.03 72 1009.6
20260505171558 55 290 1.7 8.7 0.00 0.03 0.03 74 1009.5
20260505170054 54 176 2.6 7.8 0.00 0.03 0.03 76 1009.4
20260505164554 53 253 0.9 9.6 0.00 0.03 0.03 78 1009.3
20260505163052 51 205 0.0 7.8 0.00 0.03 0.03 80 1009.1
20260505161551 51 224 0.0 3.5 0.00 0.03 0.03 82 1009.1
20260505153101 49 300 1.7 5.2 0.01 0.03 0.03 85 1009.0
20260505151549 48 281 0.0 2.6 0.01 0.03 0.03 84 1008.9
20260505124544 45 30 2.6 7.8 0.02 0.02 0.02 81 1008.5
20260505123052 45 290 2.6 7.8 0.02 0.02 0.02 79 1009.3
20260505121539 46 300 2.6 9.6 0.01 0.01 0.01 78 1009.6
20260505120043 47 279 0.9 13.9 0.00 0.00 0.00 75 1009.1
20260505114533 49 300 4.3 20.0 0.00 0.00 0.00 71 1008.9
20260505113030 50 286 7.8 14.8 0.00 0.00 0.00 69 1008.8
20260505111532 50 302 3.5 12.2 0.00 0.00 0.00 75 1008.5
20260505101529 49 292 2.6 7.8 0.00 0.00 0.00 77 1008.5
20260505100029 49 319 1.7 4.3 0.00 0.00 0.00 77 1008.3
20260505094521 48 296 0.0 2.6 0.00 0.00 0.00 77 1008.9
20260505093020 48 269 0.0 7.0 0.00 0.00 0.00 76 1008.4
20260505091520 48 336 0.9 2.6 0.00 0.00 0.00 76 1008.6
20260505090016 49 309 0.0 0.0 0.00 0.00 0.00 75 1008.5
20260505084515 49 309 0.0 2.6 0.00 0.00 0.00 74 1008.5
20260505083018 49 323 0.0 2.6 0.00 0.00 0.00 74 1008.6
20260505081512 49 321 0.0 2.6 0.00 0.00 0.00 73 1008.9
20260505080017 50 313 0.9 3.5 0.00 0.00 0.00 72 1009.1
20260505074508 50 13 0.0 0.0 0.00 0.00 0.00 70 1009.3
20260505073059 50 13 0.0 1.7 0.00 0.00 0.00 70 1009.2
20260505071505 51 19 0.0 1.7 0.00 0.00 0.00 69 1009.1
20260505070004 51 321 0.0 2.6 0.00 0.00 0.00 68 1008.9
20260505064502 51 278 0.0 2.6 0.00 0.00 0.00 67 1009.2
20260505063101 51 278 0.0 3.5 0.00 0.00 0.00 67 1009.3
20260505061559 52 309 0.0 4.3 0.00 0.00 0.00 67 1008.8